OBJECT AV, 61778

Orbit data source: Space-Track

You're viewing an Uncataloged Satellite

Recently launched and/or uncataloged satellites may have evolving metadata. Metadata may include but not limited to: Owner, Maufacturer, Bus, Motor, and Mission.

OBJECT AV, 61778 is a satellite in SSO that was launched on Mon, 04 Nov 2024 UTC via a SOYUZ-2-1B launch vehicle from the Vostochny Cosmodrome (VOSTO). Unknown objects in Earth's orbit typically refer to objects detected orbiting the Earth but have not yet been identified or cataloged. These objects could be anything from previously untracked satellites, spent rocket stages, debris from satellite collisions, or even natural meteoroids temporarily captured by Earth's gravity.

Loading next visibility...
Identifier
61778, 2024-199AV
Orbit
SSO
Country
Flag of TBDTBD
Related business
Manufacturer
Sputniks
Mission
Operational Commercial Communications
Bus & Motor
CUBESAT 3U?, Unknown motor
Mass
3 kg wet, 3 kg dry
Launch date (UTC)
2024-11-04 (1 year ago)
Launch vehicle
SOYUZ-2-1B
Launch site
Vostochny Cosmodrome (VOSTO)
Object type
Unknown
Shape & HBR
Box, 0.1 m
Radar Cross Section
0.035 m², Small (<0.1 m²)

Expand to show TLE details & history
Last TLE update: 8 hours ago

TLE from 8 hours ago
0 OBJECT AV
1 61778U 24199AV  25295.17399002  .00033373  00000-0  85556-3 0  9999
2 61778  97.3268 163.1913 0013659  80.0882 280.1904 15.39196938 97598
Epoch: 2025-10-22T04:10Z
TLE epoch observation values (Epoch: 2025-10-22T04:10:32.737Z)
Latitude
-0.00013°
Longitude
69.70352°
Altitude
449.964 km
Speed
7.643 km/s
True Right ascension
10h 52m 45s
True Declination
0° 00' 00"
Sunlit
Object was in daylight at epoch
Visualization orbit readout
Latitude
Unknown
Longitude
Unknown
Altitude
Unknown
Speed
Unknown
Apparent Right ascension
Unknown
Apparent Declination
Unknown
Sunlit
N/A
Visualization observer readout
Local Sidereal Time
07:11:48
Azimuth
Unknown
Elevation
Unknown
Doppler factor
Unknown
Orbital elements
Apogee altitude
454.74 km
Perigee altitude
436.099 km
Semi-major axis
6,823.557 km
Eccentricity
0.00137
Inclination
97.3268°
RAAN
163.1913°
Arg. of periapsis
80.0882°
True anomaly
280.0363°
Mean anomaly
280.1904°
Eccentric anomaly
280.11336°
Mean motion
3.85059 °/min
Orbital period
93.49 mins
BSTAR
0.00085556
Loading maneuver chart data...
Computing Atmospheric mass density...
Loading historical data...
Loading historical data...
Loading historical data...
Loading historical data...
Loading historical data...
Loading historical data...
Loading historical data...

Documentation

Showing up to 5 results
|